GBOVK EGNS-EGGP

Flight info

Callsign GBOVK
Flight time N/A
Altitude 7000
Route TIMIS DANDI PENIL TIPOD
Aircraft DA62/L-V/N

Departure

Time 2026-04-17 19:00
Airport Isle of Man Airport (EGNS)

Arrival

Time N/A
Airport Liverpool John Lennon Airport (EGGP)
Time Latitude Longitude Altitude Speed Heading
2026-04-17 18:34 54.08598 -4.63224 34 ft 0 kts 223°
2026-04-17 18:56 54.08593 -4.63232 34 ft 8 kts 220°
2026-04-17 18:56 54.08463 -4.63370 35 ft 23 kts 204°
2026-04-17 18:57 54.08373 -4.63325 35 ft 12 kts 107°
2026-04-17 18:57 54.08388 -4.63186 34 ft 16 kts 77°
2026-04-17 18:57 54.08421 -4.62972 32 ft 21 kts 73°
2026-04-17 18:57 54.08443 -4.62754 33 ft 20 kts 76°
2026-04-17 18:58 54.08474 -4.62516 34 ft 21 kts 75°
2026-04-17 18:58 54.08508 -4.62261 33 ft 23 kts 78°
2026-04-17 18:58 54.08546 -4.61960 28 ft 28 kts 76°
2026-04-17 18:58 54.08590 -4.61628 23 ft 30 kts 75°
2026-04-17 18:59 54.08633 -4.61284 18 ft 30 kts 78°
2026-04-17 18:59 54.08670 -4.60960 14 ft 23 kts 86°
2026-04-17 18:59 54.08602 -4.60777 11 ft 19 kts 165°
2026-04-17 18:59 54.08524 -4.60846 11 ft 14 kts 251°
2026-04-17 19:00 54.08456 -4.61356 18 ft 71 kts 258°
2026-04-17 19:00 54.08311 -4.62387 91 ft 102 kts 252°
2026-04-17 19:00 54.07920 -4.63271 477 ft 95 kts 193°
2026-04-17 19:00 54.07386 -4.62803 845 ft 91 kts 127°
2026-04-17 19:01 54.06968 -4.62016 1195 ft 89 kts 131°
2026-04-17 19:01 54.06542 -4.61269 1526 ft 88 kts 147°
2026-04-17 19:01 54.05951 -4.61091 1838 ft 87 kts 171°
2026-04-17 19:01 54.05351 -4.60962 2158 ft 87 kts 176°
2026-04-17 19:02 54.04748 -4.60868 2475 ft 87 kts 177°
2026-04-17 19:02 54.04142 -4.60791 2791 ft 87 kts 177°
2026-04-17 19:02 54.03534 -4.60721 3106 ft 88 kts 178°
2026-04-17 19:02 54.02924 -4.60657 3420 ft 88 kts 178°
2026-04-17 19:03 54.02320 -4.60596 3729 ft 88 kts 177°
2026-04-17 19:03 54.01699 -4.60535 4044 ft 89 kts 177°
2026-04-17 19:03 54.01083 -4.60476 4356 ft 89 kts 177°
2026-04-17 19:03 54.00465 -4.60417 4669 ft 89 kts 177°
2026-04-17 19:04 53.99854 -4.60360 4977 ft 89 kts 178°
2026-04-17 19:04 53.99233 -4.60301 5287 ft 90 kts 178°
2026-04-17 19:04 53.98610 -4.60242 5603 ft 90 kts 178°
2026-04-17 19:04 53.97986 -4.60182 5907 ft 90 kts 178°
2026-04-17 19:05 53.97359 -4.60122 6216 ft 90 kts 178°
2026-04-17 19:05 53.96731 -4.60062 6524 ft 91 kts 178°
2026-04-17 19:05 53.96100 -4.60002 6827 ft 91 kts 178°
2026-04-17 19:05 53.95436 -4.59940 7007 ft 109 kts 177°
2026-04-17 19:06 53.94708 -4.59238 7015 ft 140 kts 127°
2026-04-17 19:06 53.94129 -4.57744 7011 ft 161 kts 123°
2026-04-17 19:06 53.93478 -4.56082 6993 ft 176 kts 124°
2026-04-17 19:06 53.92901 -4.54174 6919 ft 187 kts 102°
2026-04-17 19:07 53.93280 -4.52152 6785 ft 197 kts 37°
2026-04-17 19:07 53.94336 -4.52622 6749 ft 182 kts 246°
2026-04-17 19:07 53.94131 -4.51977 5986 ft 219 kts 349°
2026-04-17 19:07 53.93845 -4.52588 5750 ft 210 kts 94°